Challis, ID

9:33 PM MDT on July 23, 2016 (GMT -0600)
Challis

Weather History for KLLJ - October, 2012

Change the Weather History Date:

Tuesday, October 9, 2012

  Actual Average Record
Temperature  
Mean Temperature 47 °F 47 °F  
Max Temperature 66 °F 62 °F 82 °F (1936)
Min Temperature 27 °F 32 °F 13 °F (1985)
Degree Days  
Heating Degree Days 18 18  
Month to date heating degree days 172 148  
Since 1 July heating degree days 349 497  
Cooling Degree Days 0 0  
Month to date cooling degree days 0 0  
Year to date cooling degree days 329 248  
Moisture  
Dew Point 16 °F    
Average Humidity 32    
Maximum Humidity 46    
Minimum Humidity 18    
Precipitation  
Precipitation 0.00 in 0.02 in 0.23 in (1932)
Month to date precipitation 0.00 0.16  
Year to date precipitation 3.88 8.29  
Sea Level Pressure  
Sea Level Pressure 30.01 in    
Wind  
Wind Speed 1 mph (NW)    
Max Wind Speed 8 mph    
Max Gust Speed 10 mph    
Visibility 10 miles    
Events      
T = Trace of Precipitation, MM = Missing Value Source: NWS Daily Summary

Daily Weather History Graph

Daily Weather History Graph

Search for Another Location

Airport or City:

Trip Planner

Search our weather history database for the weather conditions in past years. The results will help you decide how hot, cold, wet, or windy it might be!

Date:

Astronomy

Oct. 09, 2012 Rise Set
Actual Time 7:45 AM MDT 7:01 PM MDT
Civil Twilight 7:16 AM MDT 7:31 PM MDT
Nautical Twilight 6:42 AM MDT 8:04 PM MDT
Astronomical Twilight 6:08 AM MDT 8:38 PM MDT
Moon 1:11 AM MDT (10/9) 3:44 PM MDT (10/9)
Length of Visible Light 12h 15m
Length of Day
11h 16m
Last Quarter, 36% of the Moon is Illuminated
Oct 9
Last Quarter
Oct 15
New
Oct 21
First Quarter
Oct 29
Full
Nov 6
Last Quarter

Hourly Weather History & Observations

Time (MDT) Temp. Windchill Dew Point Humidity Pressure Visibility Wind Dir Wind Speed Gust Speed Precip Events Conditions
12:55 AM 39.9 °F - 12.0 °F 32% 29.95 in 9.0 mi Calm Calm - N/A   Clear
1:55 AM 36.0 °F - 10.9 °F 36% 29.96 in 10.0 mi Calm Calm - N/A   Clear
2:55 AM 33.1 °F 30.0 °F 12.0 °F 42% 29.98 in 10.0 mi NW 3.5 mph - N/A   Clear
3:55 AM 33.1 °F - 14.0 °F 46% 29.97 in 10.0 mi Calm Calm - N/A   Clear
4:55 AM 32.0 °F 28.7 °F 10.9 °F 42% 29.98 in 10.0 mi WNW 3.5 mph - N/A   Clear
5:55 AM 33.1 °F - 10.0 °F 38% 30.01 in 10.0 mi Calm Calm - N/A   Clear
6:55 AM 30.0 °F - 9.0 °F 41% 30.04 in 10.0 mi Calm Calm - N/A   Clear
7:55 AM 28.9 °F - 10.9 °F 47% 30.09 in 9.0 mi Calm Calm - N/A   Clear
8:55 AM 33.1 °F - 14.0 °F 46% 30.11 in 10.0 mi Calm Calm - N/A   Clear
9:55 AM 39.9 °F - 14.0 °F 35% 30.12 in 10.0 mi Calm Calm - N/A   Clear
10:55 AM 46.9 °F - 12.0 °F 24% 30.09 in 9.0 mi Calm Calm - N/A   Clear
11:55 AM 51.1 °F - 14.0 °F 23% 30.06 in 10.0 mi Calm Calm - N/A   Clear
12:55 PM 55.9 °F - 18.0 °F 23% 30.04 in 10.0 mi NE 3.5 mph - N/A   Clear
1:55 PM 60.1 °F - 19.9 °F 21% 30.01 in 10.0 mi Calm Calm - N/A   Clear
2:55 PM 63.0 °F - 21.0 °F 20% 29.98 in 10.0 mi NW 4.6 mph - N/A   Clear
3:55 PM 63.0 °F - 19.9 °F 19% 29.97 in 10.0 mi SW 3.5 mph - N/A   Clear
4:55 PM 64.9 °F - 19.0 °F 17% 29.95 in 8.0 mi Calm Calm - N/A   Clear
5:55 PM 64.0 °F - 19.9 °F 18% 29.94 in 7.0 mi NW 4.6 mph - N/A   Clear
6:55 PM 55.9 °F - 19.0 °F 24% 29.99 in 7.0 mi WNW 5.8 mph - N/A   Clear
7:55 PM 55.0 °F - 21.0 °F 27% 30.00 in 10.0 mi NNW 5.8 mph - N/A   Clear
8:55 PM 50.0 °F - 21.0 °F 32% 30.02 in 10.0 mi Calm Calm - N/A   Clear
9:55 PM 46.0 °F - 18.0 °F 33% 30.03 in 10.0 mi Calm Calm - N/A   Clear
10:55 PM 45.0 °F - 19.0 °F 36% 30.03 in 10.0 mi Calm Calm - N/A   Clear
11:55 PM 42.1 °F - 18.0 °F 38% 30.03 in 10.0 mi Calm Calm - N/A   Clear